Wind_Speed
71 77 84 79 73 64 62 64 62 59 48 51 54 52 50 49 47 45 43 38 33 34 34 35 37 34 30 34 34 34 38 39 39 31 33 32 34 38 37 38 41 40 39 41
49 62 70 73 65 66 66 66 62 53 50 50 51 50 52 47 47 47 45 35 35 34 31 31 33 34 32 31 34 39 32 34 38 36 36 34 36 37 38 37 37 38 39 39
31 39 54 59 61 63 68 68 65 60 30 39 38 35 41 48 49 49 46 38 35 34 31 30 29 28 29 33 37 35 30 33 34 37 36 36 37 36 37 38 36 37 37 40
20 26 34 52 55 58 66 64 62 58 39 34 36 43 38 57 45 42 46 38 38 36 33 29 29 24 25 32 33 31 35 24 30 34 34 34 34 35 38 36 35 35 38 41
25 17 22 47 36 54 56 59 63 63 50 39 37 43 45 45 51 44 39 37 39 38 35 30 29 26 22 28 31 28 26 26 32 30 30 33 35 37 36 34 32 34 38 39
17 23 18 33 33 33 51 51 39 40 51 51 39 39 46 47 47 39 43 38 38 37 37 35 34 31 24 27 28 28 28 25 26 27 30 31 34 36 33 30 32 34 36 38
8 11 30 25 36 37 49 50 48 41 52 59 56 39 49 48 38 42 35 41 40 39 37 36 34 36 28 31 29 29 20 21 24 26 27 30 32 34 35 31 34 37 37 38
10 10 15 27 38 31 46 47 55 50 46 59 61 64 58 37 26 32 35 35 41 40 41 39 35 36 31 31 32 25 18 24 26 27 28 31 33 36 34 34 36 36 37 39
12 9 8 25 30 43 29 49 45 44 37 47 60 56 42 28 29 31 31 38 38 42 41 39 38 37 39 35 32 19 31 30 27 29 31 34 35 34 32 36 34 35 35 35
14 20 8 19 27 32 47 36 47 48 37 38 40 52 46 41 35 42 41 42 44 41 43 43 44 42 41 37 27 30 28 30 30 30 32 34 33 35 35 34 34 35 35 35
17 17 13 21 23 17 48 46 48 47 38 39 38 44 44 34 43 51 49 44 39 46 46 45 44 43 43 28 30 32 32 31 31 29 29 31 33 34 32 32 33 33 30 31
14 18 16 15 17 20 38 46 49 53 38 39 33 31 39 35 51 52 50 49 44 39 43 43 41 39 28 35 34 33 32 30 30 28 28 32 30 29 29 31 33 33 33 34
13 20 16 17 15 20 39 37 39 53 37 43 42 37 44 41 43 37 44 51 47 41 36 36 33 33 37 36 34 32 31 31 30 29 30 28 27 28 30 33 35 37 39 41
0 8 15 19 25 12 36 37 46 54 35 46 36 32 49 52 38 40 38 42 45 44 42 39 39 38 37 36 34 33 33 32 29 28 26 26 26 29 31 34 36 39 42 43
5 10 13 11 13 16 27 36 53 52 29 33 46 19 40 51 49 44 36 34 46 46 45 43 41 40 38 35 34 33 32 29 28 25 24 25 27 30 34 38 38 40 43 41
5 6 5 4 17 14 12 28 56 44 32 26 20 32 35 39 47 44 42 36 45 45 43 41 39 37 34 33 32 31 28 27 24 24 26 27 29 33 36 35 38 39 37 37
6 13 11 11 13 14 31 35 37 45 23 18 36 38 29 38 36 32 38 43 41 40 39 38 36 35 34 30 27 26 26 24 25 27 27 31 32 34 35 34 37 34 32 32
15 11 8 14 13 16 30 26 27 42 34 28 31 16 35 38 33 37 42 40 41 39 38 36 34 31 29 28 26 24 23 25 27 30 33 34 36 34 34 30 29 31 31 31
5 7 7 18 18 21 37 24 45 31 38 32 29 31 35 41 40 41 41 42 38 36 35 34 32 29 28 24 22 23 25 29 31 34 37 35 32 32 24 28 30 31 31 32
7 11 10 18 24 24 30 22 21 26 17 21 20 28 35 38 42 45 45 41 38 36 32 31 31 29 27 24 26 29 30 30 30 28 27 26 24 24 29 31 30 31 32 33
9 7 5 22 27 23 20 27 24 16 19 18 31 34 40 40 37 37 39 39 38 36 33 30 30 29 29 30 32 31 31 30 25 23 18 19 23 26 28 28 28 30 32 35
5 20 17 18 23 20 22 25 25 24 16 27 26 38 43 39 35 36 36 38 37 36 37 35 34 35 35 34 32 29 25 22 19 19 19 20 24 24 24 25 27 31 35 38
10 15 17 22 17 20 23 17 17 21 25 20 43 39 40 38 38 37 34 37 37 37 36 35 34 35 35 28 23 25 23 22 23 22 24 23 21 21 24 29 34 38 41 42
9 13 15 18 18 16 12 14 19 18 20 36 41 35 44 41 40 41 37 34 34 31 31 27 23 19 14 13 13 13 15 18 20 19 18 18 20 26 31 35 38 42 42 41
9 16 12 11 18 16 11 23 18 18 19 23 35 31 36 37 35 33 32 29 33 27 21 20 17 15 12 11 11 12 13 13 14 14 17 22 27 31 34 38 41 41 37 35
10 15 15 18 17 15 22 26 25 25 25 28 28 32 27 28 28 25 26 22 20 22 18 15 13 12 10 11 11 11 11 12 14 18 22 25 29 34 37 38 36 34 32 31
Wind_Direction
243 240 236 239 239 236 238 238 241 240 242 241 242 240 234 229 233 237 237 237 243 247 246 245 246 246 249 258 259 251 247 249 254 259 262 265 266 263 271 269 272 276 282 284
231 235 235 234 237 233 229 232 231 236 239 239 244 244 240 231 232 235 237 234 238 242 245 244 244 244 251 246 249 248 238 246 249 251 254 251 258 263 264 270 274 279 282 285
224 235 226 223 225 223 224 227 226 229 226 241 232 241 241 238 230 236 239 235 232 239 243 245 245 245 248 242 240 257 239 230 230 244 245 251 256 262 267 269 275 278 283 285
245 231 224 216 220 218 221 221 223 223 193 215 229 225 227 240 232 232 236 235 237 236 239 242 245 241 247 237 243 236 256 230 231 241 244 251 256 260 262 269 274 279 282 282
233 226 233 204 221 216 217 217 222 221 204 200 217 224 224 242 237 232 234 232 233 235 233 235 243 239 239 237 246 250 249 235 235 238 241 245 249 254 260 268 275 277 280 283
212 204 207 201 200 207 216 204 202 223 204 201 201 227 232 226 234 233 233 230 230 229 232 232 238 240 226 236 241 244 239 240 244 238 243 246 253 265 269 276 277 279 281 283
194 177 214 214 192 198 203 208 193 200 208 203 200 209 228 231 240 238 231 228 227 226 227 231 236 242 232 236 243 248 243 243 246 247 252 258 265 276 280 283 282 283 287 287
216 180 196 203 195 195 200 197 202 197 203 212 215 225 227 227 201 229 235 225 224 222 227 228 224 236 235 238 239 242 237 240 246 252 258 266 270 275 280 281 282 285 288 292
254 221 215 186 194 210 209 189 203 206 211 220 216 220 211 174 196 195 228 222 218 219 223 226 227 229 235 242 248 227 237 242 249 253 261 266 271 276 275 278 283 286 288 293
242 257 255 204 207 196 197 193 194 188 198 208 207 216 208 191 193 204 217 222 216 214 217 220 227 231 239 244 244 236 240 243 245 249 258 266 271 272 275 279 284 289 294 298
241 249 259 182 186 181 183 187 195 183 191 184 202 214 220 209 204 206 219 226 230 217 216 222 227 231 235 241 238 240 241 243 247 253 260 265 266 270 276 283 288 292 292 298
276 248 246 263 175 176 196 194 186 188 187 176 183 204 192 200 213 218 219 223 226 222 226 229 232 235 233 230 235 239 242 245 248 252 257 260 268 276 283 286 290 293 294 293
252 243 241 181 174 179 181 213 184 179 182 174 173 195 194 200 203 229 221 225 222 220 219 222 223 220 226 231 236 240 242 244 246 250 256 263 271 278 283 289 293 294 292 291
52 205 201 188 192 172 195 190 180 177 189 168 189 200 192 204 209 222 222 217 216 217 215 218 219 222 227 230 233 236 239 243 249 251 256 266 273 280 283 289 294 294 293 291
248 219 201 237 200 167 197 197 181 179 179 191 186 198 198 203 207 222 227 214 202 205 210 214 217 220 223 226 229 234 239 242 246 252 259 268 273 278 285 289 290 296 304 297
89 131 156 192 148 159 163 162 173 171 198 187 181 210 184 201 205 213 223 210 200 201 206 211 214 218 220 223 228 229 233 240 248 256 262 267 275 287 290 286 289 296 305 308
105 105 102 131 157 153 156 175 166 177 208 168 187 199 198 183 185 197 201 194 195 196 201 205 208 210 213 218 221 227 236 248 255 261 263 270 280 282 285 286 294 301 301 302
97 133 80 131 163 165 149 161 199 194 200 210 195 190 190 185 185 188 187 194 189 192 195 198 201 203 205 215 225 238 247 253 257 262 266 273 274 277 289 296 297 297 301 305
54 69 157 135 136 156 156 169 182 174 193 200 214 207 189 182 184 182 186 184 185 188 189 191 198 203 213 220 229 234 244 251 257 265 267 273 269 281 285 295 298 301 302 301
89 142 139 134 137 156 183 205 138 165 208 191 175 166 177 177 182 185 184 183 184 188 192 198 202 212 214 226 235 240 245 252 263 270 275 277 278 276 283 296 301 302 303 305
14 86 179 157 152 144 164 180 202 177 186 209 167 172 175 179 183 191 188 188 192 198 202 206 211 217 225 230 235 243 253 259 260 277 268 267 279 285 292 298 301 304 307 308
4 131 70 100 140 162 164 171 187 183 205 208 188 171 177 179 183 191 193 193 196 198 204 208 211 217 224 234 243 252 250 255 265 256 265 283 291 294 298 301 305 306 307 308
54 76 80 120 109 145 152 150 176 185 179 170 176 171 180 183 191 193 200 205 204 209 208 209 221 228 238 244 240 247 256 255 247 264 274 285 290 294 300 307 309 308 309 309
92 93 112 114 131 154 93 140 144 113 148 170 179 176 186 192 198 200 205 212 216 222 221 224 209 204 209 220 227 234 244 250 260 272 277 282 292 304 309 309 309 312 310 306
123 128 123 148 94 122 131 141 155 115 114 125 178 180 179 169 192 205 201 214 214 188 177 184 183 192 208 224 238 243 249 253 261 270 284 296 305 308 307 309 311 307 304 302
151 155 150 130 146 121 134 140 130 124 115 121 123 135 136 160 147 140 150 154 163 170 172 180 194 211 230 240 243 245 250 257 273 288 299 307 312 312 310 309 307 303 299 298
Height
5592 5595 5606 5633 5647 5666 5675 5677 5685 5697 5700 5708 5718 5723 5731 5738 5744 5751 5756 5763 5770 5774 5781 5786 5790 5796 5803 5809 5809 5811 5813 5815 5820 5824 5828 5833 5836 5836 5835 5836 5836 5836 5837 5837
5569 5572 5604 5621 5627 5640 5650 5658 5669 5684 5691 5698 5706 5713 5722 5729 5737 5742 5748 5758 5763 5768 5774 5779 5783 5789 5796 5798 5797 5798 5807 5809 5815 5819 5824 5827 5828 5831 5832 5829 5829 5830 5830 5829
5559 5568 5589 5594 5606 5618 5630 5642 5661 5672 5686 5690 5699 5703 5707 5719 5727 5734 5742 5750 5757 5762 5768 5773 5778 5784 5788 5788 5788 5795 5800 5804 5808 5813 5818 5822 5822 5825 5826 5824 5824 5824 5824 5823
5552 5563 5573 5582 5590 5605 5616 5637 5653 5662 5673 5681 5689 5695 5701 5706 5719 5727 5735 5744 5750 5755 5760 5766 5772 5780 5782 5783 5786 5795 5797 5796 5800 5807 5812 5815 5817 5818 5818 5818 5818 5819 5818 5817
5552 5556 5560 5568 5583 5596 5609 5628 5637 5647 5660 5673 5680 5685 5694 5696 5706 5722 5730 5737 5742 5748 5753 5759 5766 5775 5780 5777 5777 5782 5783 5790 5798 5805 5808 5809 5810 5811 5813 5813 5814 5813 5810 5810
5549 5553 5559 5563 5577 5587 5605 5616 5628 5636 5647 5653 5666 5675 5683 5691 5708 5714 5720 5729 5735 5741 5746 5752 5759 5767 5777 5776 5776 5779 5785 5791 5796 5799 5800 5803 5803 5803 5806 5806 5804 5804 5803 5800
5547 5548 5553 5558 5570 5577 5587 5602 5613 5623 5629 5640 5657 5668 5678 5692 5699 5704 5714 5720 5729 5735 5741 5747 5752 5759 5768 5773 5774 5776 5782 5785 5787 5790 5793 5795 5796 5795 5792 5795 5796 5794 5794 5792
5545 5549 5554 5559 5565 5573 5577 5591 5601 5609 5620 5634 5651 5658 5674 5688 5690 5695 5704 5713 5720 5728 5734 5740 5747 5751 5757 5764 5770 5775 5778 5779 5781 5784 5787 5787 5787 5786 5788 5787 5787 5786 5785 5782
5545 5548 5549 5554 5562 5569 5576 5579 5602 5615 5625 5633 5645 5660 5672 5677 5685 5691 5697 5704 5713 5721 5728 5734 5739 5743 5747 5756 5763 5772 5771 5774 5777 5778 5779 5780 5780 5782 5784 5781 5780 5779 5777 5774
5545 5544 5546 5550 5554 5559 5569 5588 5593 5604 5616 5626 5638 5647 5655 5670 5679 5687 5689 5697 5706 5714 5721 5727 5730 5737 5743 5749 5758 5760 5765 5767 5769 5770 5772 5774 5775 5776 5777 5775 5773 5772 5770 5768
5544 5544 5545 5548 5551 5556 5563 5570 5588 5603 5608 5618 5634 5643 5655 5667 5671 5675 5684 5691 5700 5706 5710 5718 5724 5731 5737 5747 5750 5754 5756 5759 5762 5764 5766 5768 5769 5770 5769 5768 5767 5766 5763 5760
5541 5541 5545 5546 5550 5555 5565 5568 5576 5591 5604 5613 5630 5645 5645 5654 5660 5671 5682 5687 5693 5701 5709 5714 5721 5728 5737 5738 5742 5747 5750 5753 5757 5758 5760 5761 5761 5762 5762 5762 5760 5758 5755 5753
5541 5542 5545 5545 5550 5550 5552 5564 5576 5590 5603 5612 5623 5630 5640 5643 5652 5667 5678 5683 5689 5696 5704 5710 5717 5723 5727 5732 5737 5741 5745 5748 5750 5751 5752 5753 5755 5756 5756 5755 5753 5751 5749 5747
5539 5541 5542 5544 5546 5552 5557 5562 5573 5583 5592 5604 5613 5622 5631 5639 5652 5655 5666 5675 5684 5692 5698 5706 5711 5717 5723 5728 5733 5737 5740 5742 5744 5745 5747 5749 5750 5751 5749 5748 5746 5744 5741 5737
5539 5539 5541 5542 5543 5549 5558 5562 5572 5580 5593 5601 5609 5618 5626 5637 5646 5653 5661 5668 5677 5684 5692 5700 5706 5712 5718 5723 5728 5732 5734 5736 5738 5741 5743 5744 5745 5744 5743 5741 5739 5737 5733 5728
5542 5543 5542 5544 5547 5552 5556 5564 5574 5583 5590 5599 5609 5615 5622 5632 5641 5649 5655 5663 5670 5678 5686 5694 5702 5709 5714 5719 5723 5725 5729 5732 5735 5737 5738 5739 5739 5738 5737 5735 5733 5731 5727 5723
5546 5548 5549 5551 5554 5560 5565 5570 5579 5586 5585 5586 5602 5609 5616 5625 5635 5643 5650 5657 5666 5675 5683 5691 5698 5704 5709 5714 5718 5721 5725 5728 5731 5732 5733 5733 5733 5732 5731 5729 5727 5724 5722 5718
5551 5551 5553 5555 5558 5563 5571 5577 5579 5585 5589 5596 5599 5602 5618 5625 5632 5640 5648 5656 5663 5672 5681 5688 5695 5700 5705 5710 5714 5718 5721 5724 5726 5727 5727 5727 5727 5726 5725 5723 5721 5718 5714 5711
5554 5556 5557 5560 5562 5567 5571 5573 5582 5588 5598 5602 5606 5608 5613 5621 5631 5639 5648 5656 5665 5672 5680 5686 5691 5698 5703 5708 5712 5715 5718 5720 5721 5721 5721 5720 5720 5720 5719 5717 5714 5711 5707 5704
5559 5560 5562 5565 5568 5570 5572 5573 5581 5589 5595 5600 5603 5611 5618 5625 5632 5640 5648 5657 5665 5672 5679 5686 5691 5697 5702 5706 5709 5712 5714 5715 5716 5715 5715 5715 5715 5714 5713 5711 5708 5704 5701 5698
5563 5565 5566 5560 5573 5575 5578 5583 5588 5592 5601 5603 5608 5613 5618 5626 5637 5647 5652 5659 5665 5672 5678 5684 5689 5694 5699 5702 5705 5708 5709 5710 5710 5710 5711 5711 5711 5709 5708 5705 5702 5699 5695 5692
5568 5568 5566 5568 5574 5580 5584 5587 5590 5594 5597 5602 5608 5616 5623 5631 5639 5646 5652 5659 5664 5670 5676 5681 5687 5691 5694 5698 5701 5703 5704 5706 5707 5707 5707 5706 5705 5704 5701 5699 5696 5693 5689 5685
5575 5576 5576 5579 5578 5584 5587 5593 5595 5599 5601 5603 5610 5616 5625 5632 5639 5647 5654 5660 5666 5671 5676 5681 5685 5688 5692 5695 5697 5699 5700 5701 5703 5703 5703 5702 5700 5698 5696 5693 5689 5686 5681 5676
5581 5581 5584 5587 5585 5587 5588 5593 5599 5601 5604 5607 5613 5620 5623 5630 5640 5647 5653 5660 5665 5671 5676 5680 5684 5687 5689 5692 5693 5695 5696 5698 5698 5699 5698 5697 5695 5692 5689 5685 5682 5676 5672 5667
5585 5587 5590 5586 5589 5593 5596 5600 5604 5606 5609 5611 5618 5624 5631 5633 5639 5645 5652 5659 5666 5670 5675 5679 5683 5686 5688 5690 5691 5692 5693 5694 5694 5694 5693 5691 5688 5685 5682 5678 5673 5668 5664 5660
5587 5590 5593 5594 5599 5600 5601 5605 5609 5614 5617 5621 5624 5627 5632 5641 5645 5649 5656 5662 5666 5671 5675 5680 5683 5685 5686 5687 5688 5689 5690 5690 5690 5689 5687 5684 5681 5678 5673 5669 5664 5660 5656 5653